Orbital Elements at Epoch 2459000.5 (2020-May-31.0) TDB
Reference: JPL 26 (heliocentric ecliptic J2000)
Element | Value | Uncertainty (1-sigma) | Units |
e | .1079224703427968 | 3.48e-08 | |
a | 2.609768864912485 | 9.589e-09 | au |
q | 2.328116161987413 | 9.2064e-08 | au |
i | 3.115338006065108 | 3.6913e-06 | deg |
node | 95.56959727247131 | 7.7429e-05 | deg |
peri | 354.5557773675646 | 7.9825e-05 | deg |
M | 189.5784582495929 | 1.9489e-05 | deg |
tp | 2459729.493212000913 (2022-May-29.99321200) | 8.4173e-05 | TDB |
period | 1539.931828012004 4.22 | 8.4872e-06 2.324e-08 | d yr |
n | .2337765824768664 | 1.2884e-09 | deg/d |
Q | 2.891421567837557 | 1.0624e-08 | au |
|
| | Orbit Determination Parameters
Additional Information
|